Regional Weather Roundup
Issued by NWS

Home | Current Version | Previous Version | Graphics & Text | Print | Product List | Glossary Off
Versions: 1 2 3 4 5 6 7 8 9 10 11 12 13 14 15 16 17 18 19 20 21 22 23 24 25 26 27 28 29 30 31 32 33 34 35 36 37 38 39 40 41 42 43 44 45 46 47 48 49 50

000
ASUS45 KSLC 230710
RWRUT

UTAH REGIONAL WEATHER ROUNDUP
NATIONAL WEATHER SERVICE SALT LAKE CITY UT
100 AM MDT WED AUG 23 2017

UTZ001>011-023>025-230800-

NORTHERN UTAH

CITY           SKY/WX    TMP DP  RH WIND       PRES   REMARKS
BRIGHAM CITY   CLOUDY    76  48  37 CALM      30.17S
HILL AFB       CLOUDY    72  49  44 S7        30.19F
LOGAN          MOCLDY    70  51  51 N9        30.17R
OGDEN          CLOUDY    73  51  46 S5        30.16F
SALT LAKE CITY LGT RAIN  75  56  51 SE8       30.15F
TOOELE VALLEY  MOCLDY    68  54  60 S12       30.16S
WENDOVER       PTCLDY    71  50  47 NW6       30.17F
HEBER CITY     CLOUDY    61  52  72 E8        30.28R
WEST JORDAN    CLOUDY    70  58  66 S15       30.20F

$$

UTZ011>015-024>027-230800-

CENTRAL/NORTHEAST UTAH

CITY           SKY/WX    TMP DP  RH WIND       PRES   REMARKS
PROVO AIRPORT  CLOUDY    67  60  78 W7        30.19F
MOAB/CANYONLAN CLEAR     73  48  41 SE9       30.15S
DELTA          MOCLDY    68  46  45 NE10      30.18F
PRICE          CLOUDY    63  55  75 W6        30.31R
RICHFIELD      CLEAR     57  52  82 CALM      30.29R
ROOSEVELT      PTCLDY    64  45  48 S3        30.25S
VERNAL         CLEAR     67  46  47 NW3       30.24R

$$

UTZ013>016-019>022-027-230800-

SOUTHERN UTAH

CITY           SKY/WX    TMP DP  RH WIND       PRES   REMARKS
BRYCE CANYON   CLEAR     51  47  86 W8        30.42S
CEDAR CITY     CLEAR     66  44  45 SE10      30.26R
MILFORD        PTCLDY    64  49  57 SE3       30.21R
ST GEORGE      CLOUDY    77  46  33 SE6       30.05R
HANKSVILLE     PTCLDY    73  43  33 N12       30.18R
KANAB          PTCLDY    68  50  52 NW8       30.26R
BLANDING       MOCLDY    69  42  37 N8        30.34S

$$

REGIONAL REPORTS     COLORADO/ARIZONA

CITY           SKY/WX    TMP DP  RH WIND       PRES   REMARKS
CRAIG, CO      CLEAR     53  41  63 SE3       30.31R
GRAND JUNCTION CLOUDY    64  48  56 CALM      30.22S
RIFLE, CO      CLEAR     60  43  53 SE3       30.28S
MONTROSE, CO   CLEAR     60  47  61 SE7       30.32S
CORTEZ, CO     CLOUDY    55  50  83 CALM      30.30R
COLORADO CITY    N/A     59  52  77 E8        30.24R
PAGE, AZ       CLEAR     78  45  30 SW3       30.13S
GRAND CANYON   CLEAR     52  49  89 CALM      30.35R
KINGMAN, AZ    CLEAR     70  48  45 SE8       30.08S
FLAGSTAFF, AZ  PTCLDY    52  45  77 CALM      30.37S

$$

REGIONAL REPORTS    NEVADA/IDAHO/WYOMING

CITY           SKY/WX    TMP DP  RH WIND       PRES   REMARKS
LAS VEGAS, NV  MOCLDY    90  47  22 SW3       29.96R
ELY, NY        LGT RAIN  61  50  67 MISG      30.32S
ELKO, NV       PTCLDY    63  50  62 E6        30.22R
POCATELLO, ID  CLEAR     74  47  38 E5        30.13S
BURLEY, ID     MOCLDY    73  48  41 S18       30.08S
FORT BRIDGER,    N/A     64  39  40 W14       30.36S
EVANSTON, WY   CLOUDY    60  43  53 S12       30.35S
ROCK SPRINGS,  CLOUDY    64  36  35 W9        30.30S
KEMMERER, WY     N/A     57  36  44 N7        30.35F

$$



USA.gov is the U.S. government's official web portal to all federal, state and local government web resources and services.